Find Starlink 36817

NORAD ID: 67882 Int'l Des: 2026-035 Owner: SPXS Country: US Constellation: starlink operational
LEOCIRCULARRETROGRADE

Live Position

Loading 3D Globe...

About Starlink 36817

Description loading...

Upcoming Passes

Passes for default location (London). Set your location on the main map for personalized predictions.

Altitude History

Loading altitude history...

Two-Line Element Set

1 67882U 26035D 26112.24882758 .00030910 00000-0 95578-3 0 9993
2 67882 97.2839 46.2366 0001490 104.3766 255.7642 15.33447755 10667
Epoch: Apr 22, 2026 • Age: 12 hours

Current Status

Altitude 481.5 km
Velocity 7.62 km/s
Sub-Earth Point -40.57°S, 101.27°E
Launch Date Feb 21, 2026
Age 0.1 years
Type internet

Technical Details

Classification Payload
Mass 575.00 kg
Dry Mass 530.00 kg
Total Mass 575.00 kg
Length 0.30 m
Diameter 4.10 m
Span 29.00 m
Shape Box + pan
Manufacturer SPXS
Bus Type Starlink V2MO
Phase Status In Orbit
Owner/State SPXS/US

Most Searched